Location: Baggett Branch
(32.6074°N, 97.0167°W)
Time: 09:56:44
(UTC+00:00)

IRS-1D - Pass Details

Date: 10 February 2026
Orbit: 736 x 811 km, 98.8° (Epoch: 7 March)

Event Time Altitude Azimuth Distance (km) Brightness Sun altitude
Rises 12:06:12 0° 3° (N) 3,296 6.7 -15.1°
Reaches altitude 10° 12:08:40 10° 357° (N) 2,352 5.9 -14.6°
Maximum altitude 12:13:28 40° 289° (WNW) 1,134 3.9 -13.6°
Drops below altitude 10° 12:18:10 10° 221° (SW) 2,294 5.7 -12.6°
Sets 12:20:33 0° 213° (SSW) 3,205 6.5 -12.1°
